Weather History for KFOE - February, 2013

Change the Weather History Date:

Thursday, February 7, 2013

  Actual Average (KTOP) Record (KTOP)
Temperature  
Mean Temperature 43 °F 32 °F  
Max Temperature 53 °F 43 °F 71 °F (2009)
Min Temperature 30 °F 22 °F -14 °F (1895)
Degree Days  
Heating Degree Days 22 33  
Month to date heating degree days 235  
Since 1 July heating degree days 3345  
Cooling Degree Days 0 0  
Month to date cooling degree days 0  
Year to date cooling degree days 0  
Moisture  
Dew Point 41 °F    
Average Humidity 84    
Maximum Humidity 100    
Minimum Humidity 57    
Precipitation  
Precipitation 0.40 in 0.05 in 0.53 in (2013)
Month to date precipitation 0.29  
Year to date precipitation 1.15  
Snow  
Snow 0.00 in 0.20 in 5.10 in (1980)
Month to date snowfall 1.3  
Year to date snowfall 6.2  
Since 1 July snowfall 12.7  
Snow Depth -    
Sea Level Pressure  
Sea Level Pressure 29.96 in    
Wind  
Wind Speed 10 mph (NW)    
Max Wind Speed 21 mph    
Max Gust Speed 26 mph    
Visibility 6 miles    
Events Rain    
T = Trace of Precipitation, MM = Missing Value Source: NWS Daily Summary

Daily Weather History Graph

Daily Weather History Graph

Search for Another Location

Airport or City:

Trip Planner

Search our weather history database for the weather conditions in past years. The results will help you decide how hot, cold, wet, or windy it might be!

Date:

Astronomy

Feb. 07, 2013 Rise Set
Actual Time 7:22 AM CST 5:51 PM CST
Civil Twilight 6:55 AM CST 6:19 PM CST
Nautical Twilight 6:23 AM CST 6:50 PM CST
Astronomical Twilight 5:52 AM CST 7:21 PM CST
Moon 5:02 AM CST 3:17 PM CST
Length of Visible Light 11h 23m
Length of Day
10h 28m
Waning Crescent, 9% of the Moon is Illuminated
Feb 7
Waning Crescent
Feb 10
New
Feb 17
First Quarter
Feb 25
Full
Mar 4
Last Quarter

Hourly Weather History & Observations

Time (CST) Temp. Windchill Dew Point Humidity Pressure Visibility Wind Dir Wind Speed Gust Speed Precip Events Conditions
12:53 AM 53.1 °F - 41.0 °F 64% 29.87 in 10.0 mi South 12.7 mph - N/A   Mostly Cloudy
1:53 AM 52.0 °F - 41.0 °F 66% 29.86 in 10.0 mi South 8.1 mph - 0.00 in Rain Light Rain
2:03 AM 51.8 °F - 42.8 °F 71% 29.87 in 10.0 mi South 8.1 mph - 0.00 in Rain Light Rain
2:21 AM 51.8 °F - 42.8 °F 71% 29.86 in 10.0 mi South 9.2 mph - 0.00 in   Overcast
2:53 AM 50.0 °F - 42.1 °F 74% 29.85 in 10.0 mi South 10.4 mph - 0.00 in   Overcast
3:53 AM 48.0 °F - 45.0 °F 89% 29.85 in 10.0 mi SSW 5.8 mph - 0.01 in Rain Light Rain
4:53 AM 48.0 °F - 46.9 °F 96% 29.85 in 6.0 mi South 8.1 mph - 0.03 in Rain Light Rain
5:31 AM 48.2 °F - 46.4 °F 93% 29.85 in 5.0 mi South 6.9 mph - 0.09 in Rain Light Rain
5:51 AM 48.2 °F - 46.4 °F 93% 29.86 in 6.0 mi Calm Calm - 0.10 in Rain Light Rain
5:53 AM 48.0 °F - 46.9 °F 96% 29.86 in 5.0 mi Calm Calm - 0.10 in Rain Light Rain
6:04 AM 48.2 °F - 46.4 °F 93% 29.87 in 5.0 mi WNW 3.5 mph - 0.00 in Rain Light Rain
6:11 AM 46.4 °F 43.5 °F 46.4 °F 100% 29.87 in 4.0 mi NW 5.8 mph - 0.01 in Rain Light Rain
6:20 AM 48.2 °F - 46.4 °F 93% 29.88 in 3.0 mi NW 5.8 mph - 0.01 in Rain Light Rain
6:33 AM 48.2 °F - 46.4 °F 93% 29.87 in 2.5 mi NW 5.8 mph - 0.04 in Rain Light Rain
6:42 AM 48.2 °F - 46.4 °F 93% 29.87 in 3.0 mi NW 4.6 mph - 0.04 in Rain Light Rain
6:53 AM 48.0 °F - 46.9 °F 96% 29.88 in 4.0 mi NW 4.6 mph - 0.04 in Rain Light Rain
7:11 AM 46.4 °F 45.2 °F 46.4 °F 100% 29.88 in 3.0 mi WNW 3.5 mph - 0.01 in Rain Light Rain
7:14 AM 46.4 °F 45.2 °F 46.4 °F 100% 29.88 in 3.0 mi WNW 3.5 mph - 0.01 in Rain Light Rain
7:24 AM 46.4 °F 43.5 °F 46.4 °F 100% 29.89 in 2.5 mi WNW 5.8 mph - 0.03 in Rain Rain
7:31 AM 48.2 °F - 46.4 °F 93% 29.90 in 3.0 mi West 5.8 mph - 0.04 in Rain Light Rain
7:53 AM 48.0 °F - 46.9 °F 96% 29.91 in 4.0 mi WNW 9.2 mph - 0.08 in Rain Rain
8:15 AM 48.2 °F - 46.4 °F 93% 29.92 in 2.5 mi NNW 15.0 mph - 0.05 in Rain Rain
8:24 AM 46.4 °F 40.1 °F 46.4 °F 100% 29.93 in 3.0 mi NNW 15.0 mph - 0.07 in Rain Light Rain
8:42 AM 46.4 °F 40.4 °F 44.6 °F 93% 29.92 in 4.0 mi North 13.8 mph 23.0 mph 0.08 in Rain Light Rain
8:53 AM 46.0 °F 40.6 °F 44.1 °F 93% 29.93 in 4.0 mi North 11.5 mph - 0.09 in Rain Light Rain
9:23 AM 44.6 °F 38.1 °F 42.8 °F 93% 29.95 in 2.5 mi NNW 13.8 mph - 0.03 in Rain Light Rain
9:39 AM 44.6 °F 37.8 °F 41.0 °F 87% 29.95 in 3.0 mi NNW 15.0 mph - 0.05 in Rain Light Rain
9:53 AM 44.1 °F 37.4 °F 42.1 °F 93% 29.94 in 4.0 mi NNW 13.8 mph - 0.05 in Rain Light Rain
10:53 AM 45.0 °F 39.3 °F 41.0 °F 86% 29.98 in 10.0 mi NNW 11.5 mph - 0.00 in   Scattered Clouds
11:53 AM 46.9 °F - 39.9 °F 77% 30.00 in 10.0 mi NNW 13.8 mph - N/A   Partly Cloudy
12:53 PM 48.9 °F - 39.0 °F 69% 29.98 in 10.0 mi NNW 16.1 mph 23.0 mph N/A   Clear
1:53 PM 51.1 °F - 37.9 °F 61% 29.98 in 10.0 mi NNW 17.3 mph 26.5 mph N/A   Clear
2:53 PM 50.0 °F - 37.0 °F 61% 30.00 in 10.0 mi NNW 20.7 mph - N/A   Clear
3:53 PM 50.0 °F - 35.1 °F 57% 30.03 in 10.0 mi NNW 15.0 mph - N/A   Clear
4:53 PM 48.0 °F - 34.0 °F 58% 30.06 in 10.0 mi NNW 16.1 mph - N/A   Clear
5:53 PM 43.0 °F 35.7 °F 34.0 °F 71% 30.09 in 7.0 mi NNW 15.0 mph - N/A   Clear
6:53 PM 37.0 °F 30.4 °F 30.9 °F 79% 30.14 in 8.0 mi North 9.2 mph - N/A   Clear
7:44 PM 35.6 °F 27.1 °F 30.2 °F 81% 30.14 in 7.0 mi NNW 12.7 mph - N/A   Mostly Cloudy
7:53 PM 35.1 °F 25.9 °F 30.0 °F 82% 30.16 in 7.0 mi NNW 13.8 mph - N/A   Overcast
8:53 PM 34.0 °F 24.6 °F 28.9 °F 82% 30.18 in 9.0 mi North 13.8 mph 21.9 mph N/A   Overcast
9:53 PM 33.1 °F 23.0 °F 28.0 °F 82% 30.20 in 6.0 mi North 15.0 mph 23.0 mph N/A   Haze
10:53 PM 33.1 °F 24.4 °F 27.0 °F 78% 30.22 in 5.0 mi NNE 11.5 mph - N/A   Haze
11:53 PM 30.9 °F 21.7 °F 26.1 °F 82% 30.24 in 6.0 mi North 11.5 mph - N/A   Haze